KUIPER-00043

Last updated on Thu Jul 03 2025 00:02:08 GMT+0000 (Coordinated Universal Time)

1 64504U 25134E 25183.58335648 .00000605 00000+0 29083-4 0 9991 2 64504 51.8694 287.0082 0009103 141.1075 295.2148 15.34543395 2570
UTC large
Height (km)
Speed (km/s)
/
Latitude / Longitude
Inclination (degrees)
Orbital Period (minutes)
Azimuth
Elevation
Range (km)
Doppler Factor

Next 0 passes for location: London (51.5072 / 0.1276)

Sorry there are no passes over London.